Date_and_time,latitude,longitude,wind_speed,RelWindDirFrom,WindDirFrom,air_pressure,air_temperature,relative_humidity,Temp,platform_speed_wrt_ground,air_pressure_at_mean_sea_level,platform_orientation
2019-01-17 23:50,50.63045,-96.98077,5.4,7.7,313,996.67,-20.2,56,0.45,0.0,1026.88,360.0
2019-01-18 00:00,50.6304483333333,-96.9807683333333,5.3,8.1,311,996.69,-20.3,56,0.46,0.0,1026.92,12.6
2019-01-18 00:00,50.6304483333333,-96.9807666666667,4.9,5.0,312,996.77,-20.5,56,0.45,0.0,1027.02,345.5
2019-01-18 00:10,50.6304483333333,-96.9807666666667,4.5,6.7,312,996.81,-20.5,56,0.46,0.0,1027.07,345.5
2019-01-18 00:20,50.63045,-96.9807683333333,3.8,5.0,313,996.80,-20.7,56,0.45,0.0,1027.09,345.5
2019-01-18 00:30,50.63045,-96.9807666666667,3.2,4.4,315,996.79,-20.9,57,0.45,0.0,1027.12,345.5
2019-01-18 00:40,50.6304483333333,-96.9807666666667,2.3,3.8,290,996.89,-21.1,58,0.45,0.0,1027.27,345.5
2019-01-18 00:50,50.6304516666667,-96.9807866666667,3.9,5.8,11,996.98,-21.7,60,0.45,0.0,1027.42,345.5
2019-01-18 01:00,50.63045,-96.9807716666667,4.3,6.1,1,997.10,-22.5,63,0.46,0.0,1027.61,360.0
2019-01-18 01:10,50.6304483333333,-96.98077,3.8,6.1,355,997.12,-22.8,63,0.46,0.0,1027.65,360.0
2019-01-18 01:20,50.63045,-96.980765,3.3,6.5,359,997.10,-22.8,63,0.46,0.0,1027.64,360.0
2019-01-18 01:30,50.63045,-96.9807683333333,2.8,3.9,345,997.16,-23.0,63,0.46,0.0,1027.74,360.0
2019-01-18 01:40,50.6304516666667,-96.98077,2.6,4.2,325,997.32,-22.9,62,0.45,0.0,1027.91,360.0
2019-01-18 01:50,50.6304516666667,-96.9807683333333,4.1,7.0,316,997.42,-22.7,61,0.45,0.0,1028.00,360.0
2019-01-18 02:00,50.6304516666667,-96.98077,5.3,6.9,338,997.44,-22.9,62,0.45,0.0,1028.03,360.0
2019-01-18 02:10,50.6304516666667,-96.98077,4.5,5.3,336,997.52,-23.3,62,0.45,0.0,1028.15,360.0
2019-01-18 02:20,50.630485,-96.9807816666667,3.3,4.1,341,997.61,-23.3,63,0.45,0.0,1028.27,360.0
2019-01-18 02:30,50.6304466666667,-96.980765,3.8,4.9,332,997.58,-23.4,62,0.45,0.0,1028.25,360.0
2019-01-18 02:40,50.63045,-96.9807666666667,4.3,5.4,323,997.49,-23.4,62,0.45,0.0,1028.18,360.0
2019-01-18 02:50,50.63045,-96.9807683333333,4.3,6.3,319,997.46,-23.4,63,0.45,0.0,1028.20,360.0
2019-01-18 03:00,50.6304516666667,-96.9807683333333,5.4,7.2,317,997.45,-23.3,64,0.44,0.0,1028.22,360.0
2019-01-18 03:10,50.63045,-96.980765,5.1,7.2,317,997.55,-23.3,63,0.44,0.0,1028.31,360.0
2019-01-18 03:20,50.63045,-96.9807666666667,4.4,6.6,327,997.70,-23.4,63,0.44,0.0,1028.49,360.0
2019-01-18 03:30,50.6304516666667,-96.9807683333333,5.1,5.9,0,997.80,-24.2,64,0.44,0.0,1028.64,360.0
2019-01-18 03:40,50.6304516666667,-96.9807683333333,5.9,7.3,1,997.87,-24.7,65,0.44,0.0,1028.73,360.0
2019-01-18 03:50,50.6304516666667,-96.9807666666667,4.9,6.3,348,998.12,-25.1,66,0.44,0.0,1029.02,360.0
2019-01-18 04:00,50.6304533333333,-96.9807683333333,4.4,5.7,349,998.35,-25.2,66,0.43,0.0,1029.29,90.0
2019-01-18 04:10,50.6304533333333,-96.9807666666667,3.6,4.7,341,998.52,-25.4,67,0.43,0.0,1029.48,90.0
2019-01-18 04:20,50.6304533333333,-96.9807666666667,2.7,3.6,322,998.68,-25.5,67,0.42,0.0,1029.66,90.0
2019-01-18 04:30,50.630455,-96.9807666666667,2.9,4.0,327,998.66,-25.5,67,0.42,0.0,1029.64,90.0
2019-01-18 04:40,50.6304483333333,-96.9807766666667,3.0,4.4,307,998.78,-25.6,68,0.42,0.0,1029.76,90.0
2019-01-18 04:50,50.6304866666667,-96.980775,2.9,4.5,286,998.84,-25.6,69,0.42,0.0,1029.83,90.0
2019-01-18 05:00,50.6304466666667,-96.9807566666667,3.3,5.0,279,999.00,-25.9,70,0.41,0.0,1030.00,167.4
2019-01-18 05:10,50.6304466666667,-96.98076,3.0,4.0,273,999.18,-26.2,70,0.41,0.0,1030.22,167.4
2019-01-18 05:20,50.63045,-96.9807583333333,3.4,4.3,275,999.28,-26.3,70,0.41,0.0,1030.38,167.4
2019-01-18 05:30,50.6304366666667,-96.98076,3.7,5.0,293,999.33,-26.2,70,0.41,0.0,1030.46,167.4
2019-01-18 05:40,50.6304483333333,-96.9807666666667,4.3,6.1,292,999.47,-26.2,70,0.41,0.0,1030.63,167.4
2019-01-18 05:50,50.6304483333333,-96.980765,4.8,7.1,289,999.48,-26.3,70,0.41,0.0,1030.65,167.4
2019-01-18 06:00,50.63045,-96.9807683333333,4.2,6.7,280,999.70,-26.5,70,0.41,0.0,1030.90,0.0
2019-01-18 06:10,50.6304583333333,-96.9807933333333,6.3,9.1,302,999.71,-26.4,69,0.41,0.0,1030.90,0.0
2019-01-18 06:20,50.6304516666667,-96.9807866666667,6.2,8.5,304,999.80,-26.3,68,0.40,0.0,1031.00,0.0
2019-01-18 06:30,50.6304583333333,-96.9807716666667,5.8,8.0,303,999.87,-26.4,68,0.40,0.0,1031.09,0.0
2019-01-18 06:40,50.6304566666667,-96.980765,6.0,8.2,296,999.99,-26.5,68,0.40,0.0,1031.21,0.0
2019-01-18 06:50,50.630455,-96.98076,6.1,9.3,294,1000.06,-26.7,68,0.40,0.0,1031.32,0.0
2019-01-18 07:00,50.6304533333333,-96.98076,6.1,8.9,294,1000.08,-26.8,67,0.39,0.0,1031.37,90.0
2019-01-18 07:10,50.63045,-96.98076,6.0,8.6,292,1000.14,-27.0,67,0.39,0.0,1031.44,90.0
2019-01-18 07:20,50.630455,-96.9807633333333,6.1,8.8,299,1000.14,-27.1,67,0.39,0.0,1031.45,90.0
2019-01-18 07:30,50.6304583333333,-96.9807766666667,6.1,8.6,301,1000.21,-27.1,67,0.40,0.0,1031.51,90.0
2019-01-18 07:40,50.6304533333333,-96.9807733333333,6.0,8.9,289,1000.46,-27.1,67,0.40,0.0,1031.78,90.0
2019-01-18 07:50,50.630455,-96.980775,5.5,7.7,296,1000.57,-27.1,67,0.40,0.0,1031.91,90.0
2019-01-18 08:00,50.6304583333333,-96.980775,5.5,7.9,301,1000.69,-27.2,67,0.39,0.0,1032.02,323.4
2019-01-18 08:10,50.6304566666667,-96.9807733333333,5.1,6.8,297,1000.78,-27.3,67,0.39,0.0,1032.12,323.4
2019-01-18 08:20,50.6304433333333,-96.9807633333333,5.3,7.5,294,1000.80,-27.5,67,0.39,0.0,1032.16,323.4
2019-01-18 08:30,50.6304416666667,-96.9807683333333,5.2,8.0,300,1000.85,-27.6,68,0.38,0.0,1032.23,323.4
2019-01-18 08:40,50.630475,-96.980765,5.0,8.2,292,1001.00,-27.6,68,0.38,0.0,1032.39,323.4
2019-01-18 08:50,50.6304416666667,-96.98077,5.1,8.1,300,1001.14,-27.7,68,0.38,0.0,1032.55,323.4
2019-01-18 09:00,50.6304683333333,-96.9807733333333,5.2,7.7,315,1001.25,-27.8,68,0.37,0.0,1032.68,336.5
2019-01-18 09:10,50.6304533333333,-96.9807666666667,6.2,9.6,319,1001.33,-27.8,69,0.36,0.0,1032.78,336.5
2019-01-18 09:20,50.6304516666667,-96.9807633333333,6.6,9.7,326,1001.42,-27.7,68,0.36,0.0,1032.86,336.5
2019-01-18 09:30,50.6304516666667,-96.98076,7.3,9.9,327,1001.51,-27.7,67,0.35,0.0,1032.95,336.5
2019-01-18 09:40,50.6304533333333,-96.9807633333333,7.5,11.4,329,1001.48,-27.9,67,0.34,0.0,1032.94,336.5
2019-01-18 09:50,50.630455,-96.9807633333333,7.3,10.4,330,1001.50,-27.9,67,0.34,0.0,1032.96,336.5
2019-01-18 10:00,50.6304533333333,-96.980775,6.2,9.1,325,1001.45,-28.0,67,0.33,0.0,1032.92,270.0
2019-01-18 10:10,50.630475,-96.9807833333333,7.6,10.6,331,1001.46,-28.0,67,0.32,0.0,1032.96,270.0
2019-01-18 10:20,50.6304533333333,-96.9807716666667,8.6,11.6,334,1001.46,-27.9,67,0.32,0.0,1032.94,270.0
2019-01-18 10:30,50.6304633333333,-96.9807366666667,8.3,11.5,330,1001.35,-28.1,67,0.32,0.0,1032.85,270.0
2019-01-18 10:40,50.6304566666667,-96.9807483333333,6.9,10.3,327,1001.38,-28.2,67,0.31,0.0,1032.89,270.0
2019-01-18 10:50,50.6304566666667,-96.9807533333333,6.1,8.6,328,1001.46,-28.4,67,0.31,0.0,1032.99,270.0
2019-01-18 11:00,50.6304583333333,-96.9807583333333,6.9,10.5,330,1001.47,-28.4,67,0.31,0.0,1033.01,90.0
2019-01-18 11:10,50.6304566666667,-96.98076,7.4,10.4,336,1001.58,-28.4,67,0.30,0.0,1033.11,90.0
2019-01-18 11:20,50.6304566666667,-96.9807633333333,6.5,9.6,329,1001.78,-28.5,67,0.29,0.0,1033.32,90.0
2019-01-18 11:30,50.6304566666667,-96.9807633333333,6.5,10.2,323,1001.91,-28.6,67,0.29,0.0,1033.47,90.0
2019-01-18 11:40,50.6304616666667,-96.9807683333333,5.7,8.3,323,1002.12,-28.7,67,0.28,0.0,1033.70,90.0
2019-01-18 11:50,50.6304583333333,-96.9807683333333,6.2,8.0,327,1002.14,-28.8,67,0.27,0.0,1033.74,90.0
2019-01-18 12:00,50.63045,-96.9807783333333,5.1,8.6,321,1002.31,-29.0,67,0.27,0.0,1033.93,212.5
2019-01-18 12:10,50.6304533333333,-96.9807666666667,5.2,6.5,316,1002.55,-29.1,67,0.26,0.0,1034.17,212.5
2019-01-18 12:20,50.630455,-96.9807666666667,4.9,6.4,307,1002.65,-29.2,67,0.26,0.0,1034.29,212.5
2019-01-18 12:30,50.6304566666667,-96.9807683333333,3.8,6.5,291,1002.80,-29.2,68,0.26,0.0,1034.46,212.5
2019-01-18 12:40,50.6304583333333,-96.9807716666667,3.5,5.3,270,1002.87,-29.5,69,0.26,0.0,1034.56,212.5
2019-01-18 12:50,50.630455,-96.9807733333333,3.1,4.2,246,1003.10,-30.0,68,0.26,0.0,1034.83,212.5
2019-01-18 13:00,50.63045,-96.9807566666667,3.1,4.5,275,1003.13,-29.9,69,0.26,0.0,1034.85,90.0
2019-01-18 13:10,50.6304716666667,-96.9807716666667,4.3,5.6,284,1003.17,-29.7,69,0.26,0.0,1034.88,90.0
2019-01-18 13:20,50.630455,-96.980765,4.2,5.4,278,1003.31,-29.7,69,0.26,0.0,1035.04,90.0
2019-01-18 13:30,50.630455,-96.9807683333333,3.9,4.8,279,1003.43,-29.9,69,0.25,0.0,1035.18,90.0
2019-01-18 13:40,50.6304533333333,-96.9807683333333,4.0,5.5,280,1003.61,-30.0,69,0.25,0.0,1035.39,90.0
2019-01-18 13:50,50.6304533333333,-96.980765,5.2,6.9,280,1003.76,-30.0,70,0.25,0.0,1035.55,90.0
2019-01-18 14:00,50.630455,-96.9807683333333,5.9,8.0,289,1003.77,-30.0,69,0.25,0.0,1035.57,192.6
2019-01-18 14:10,50.6304533333333,-96.9807683333333,5.3,7.4,289,1003.94,-30.1,69,0.26,0.0,1035.76,192.6
2019-01-18 14:20,50.6304516666667,-96.9807683333333,5.2,6.9,283,1004.18,-30.2,69,0.25,0.0,1036.01,192.6
2019-01-18 14:30,50.6304533333333,-96.98077,4.7,7.6,284,1004.33,-30.3,69,0.25,0.0,1036.20,192.6
2019-01-18 14:40,50.630455,-96.9807683333333,5.4,7.0,289,1004.36,-30.4,69,0.25,0.0,1036.26,192.6
2019-01-18 14:50,50.630455,-96.9807683333333,5.3,6.5,286,1004.64,-30.5,69,0.25,0.0,1036.55,192.6
2019-01-18 15:00,50.6304533333333,-96.9807683333333,4.8,6.9,275,1004.89,-30.6,69,0.26,0.0,1036.80,90.0
2019-01-18 15:10,50.630455,-96.980765,4.8,6.5,269,1005.13,-30.8,69,0.26,0.0,1037.07,90.0
2019-01-18 15:20,50.6304583333333,-96.98077,4.5,7.0,273,1005.37,-30.6,69,0.25,0.0,1037.31,90.0
2019-01-18 15:30,50.630455,-96.9807716666667,5.3,6.9,281,1005.42,-30.6,68,0.24,0.0,1037.37,90.0
2019-01-18 15:40,50.6304566666667,-96.9807683333333,5.5,7.3,288,1005.46,-30.1,67,0.24,0.0,1037.38,90.0
2019-01-18 15:50,50.630455,-96.9807683333333,5.3,7.5,297,1005.45,-29.6,66,0.23,0.0,1037.33,90.0
2019-01-18 16:00,50.6304533333333,-96.9807683333333,5.5,7.8,300,1005.54,-29.2,66,0.23,0.0,1037.41,270.0
2019-01-18 16:10,50.630455,-96.9807683333333,4.4,6.3,295,1005.80,-28.9,66,0.23,0.0,1037.66,270.0
2019-01-18 16:20,50.6304533333333,-96.9807683333333,4.3,5.9,289,1005.95,-28.5,65,0.23,0.0,1037.80,270.0
2019-01-18 16:30,50.6304533333333,-96.9807666666667,3.9,5.3,304,1006.02,-28.1,65,0.22,0.0,1037.85,270.0
2019-01-18 16:40,50.6304533333333,-96.980765,4.0,5.2,303,1006.15,-27.8,65,0.22,0.0,1037.97,270.0
2019-01-18 16:50,50.6304533333333,-96.980765,3.3,4.5,308,1006.26,-27.5,65,0.21,0.0,1038.07,270.0
2019-01-18 17:00,50.63044,-96.9807566666667,2.8,4.0,306,1006.37,-27.1,63,0.21,0.0,1038.16,138.7
2019-01-18 17:10,50.6304516666667,-96.9807666666667,1.5,2.9,254,1006.57,-26.6,61,0.21,0.0,1038.34,138.7
2019-01-18 17:20,50.6304483333333,-96.9807566666667,2.8,4.0,213,1006.55,-26.5,59,0.20,0.0,1038.30,138.7
2019-01-18 17:30,50.63045,-96.9807616666667,2.9,4.3,232,1006.54,-26.6,59,0.20,0.0,1038.26,138.7
2019-01-18 17:40,50.6304483333333,-96.9807616666667,3.3,4.8,274,1006.58,-26.3,58,0.20,0.0,1038.25,138.7
2019-01-18 17:50,50.6304483333333,-96.98076,3.4,5.5,229,1006.63,-26.3,58,0.20,0.0,1038.28,138.7
2019-01-18 18:00,50.6304483333333,-96.9807616666667,3.5,5.0,230,1006.65,-26.4,58,0.20,0.0,1038.29,131.7
2019-01-18 18:10,50.6304483333333,-96.9807633333333,3.0,5.0,254,1006.59,-26.2,57,0.21,0.0,1038.18,131.7
2019-01-18 18:20,50.6304483333333,-96.9807633333333,3.4,5.3,239,1006.57,-25.9,56,0.21,0.0,1038.12,131.7
2019-01-18 18:30,50.6304483333333,-96.9807633333333,3.5,4.8,219,1006.54,-25.7,56,0.22,0.0,1038.06,131.7
2019-01-18 18:40,50.6304483333333,-96.9807633333333,4.2,5.9,227,1006.54,-25.6,56,0.23,0.0,1038.04,131.7
2019-01-18 18:50,50.6304483333333,-96.9807633333333,4.3,6.5,224,1006.55,-25.4,55,0.23,0.0,1038.01,131.7
2019-01-18 19:00,50.6304483333333,-96.9807633333333,3.2,4.8,241,1006.51,-25.2,54,0.22,0.0,1037.92,142.0
2019-01-18 19:10,50.6304483333333,-96.9807633333333,3.0,5.0,272,1006.34,-24.9,53,0.22,0.0,1037.71,142.0
2019-01-18 19:20,50.6304483333333,-96.9807633333333,2.8,6.2,296,1006.21,-24.4,52,0.23,0.0,1037.56,142.0
2019-01-18 19:30,50.6304483333333,-96.9807633333333,2.0,5.4,295,1006.15,-24.2,52,0.24,0.0,1037.46,142.0
2019-01-18 19:40,50.6304483333333,-96.9807633333333,3.0,5.7,284,1006.15,-24.2,51,0.24,0.0,1037.46,142.0
2019-01-18 19:50,50.63045,-96.9807633333333,3.3,5.4,328,1006.11,-24.2,51,0.24,0.0,1037.43,142.0
2019-01-18 20:00,50.63045,-96.9807633333333,1.7,4.2,306,1006.10,-23.7,50,0.24,0.0,1037.37,345.5
2019-01-18 20:10,50.63045,-96.9807633333333,1.2,4.9,249,1006.14,-23.8,50,0.25,0.0,1037.40,345.5
2019-01-18 20:20,50.6304466666667,-96.9807783333333,1.4,2.7,203,1006.16,-23.5,49,0.25,0.0,1037.39,345.5
2019-01-18 20:30,50.6304483333333,-96.980775,0.9,3.7,103,1006.14,-22.5,48,0.26,0.0,1037.29,345.5
2019-01-18 20:40,50.6304483333333,-96.980775,2.6,3.6,88,1006.12,-21.7,49,0.26,0.0,1037.21,345.5
2019-01-18 20:50,50.63045,-96.9807733333333,2.3,3.1,85,1006.07,-21.3,48,0.27,0.0,1037.12,345.5
2019-01-18 21:00,50.6304883333333,-96.980785,1.5,2.6,99,1005.98,-20.8,48,0.27,0.0,1036.98,345.5
2019-01-18 21:10,50.63046,-96.9807716666667,1.9,3.1,78,1006.08,-20.9,47,0.27,0.0,1037.06,345.5
2019-01-18 21:20,50.6304566666667,-96.9807633333333,2.5,3.6,104,1006.17,-21.4,49,0.28,0.0,1037.17,345.5
2019-01-18 21:30,50.6304583333333,-96.9807633333333,1.3,4.3,103,1006.14,-22.3,51,0.28,0.0,1037.19,345.5
2019-01-18 21:40,50.6304583333333,-96.9807616666667,3.4,5.2,86,1006.12,-22.4,53,0.27,0.0,1037.18,345.5
2019-01-18 21:50,50.6304416666667,-96.98075,4.0,5.1,94,1006.13,-22.2,54,0.27,0.0,1037.15,345.5
2019-01-18 22:00,50.6304533333333,-96.9807483333333,4.7,5.3,97,1006.21,-22.8,56,0.28,0.0,1037.27,60.8
2019-01-18 22:10,50.630455,-96.9807533333333,4.5,5.2,102,1006.21,-23.6,59,0.29,0.0,1037.31,60.8
2019-01-18 22:20,50.6304683333333,-96.9807666666667,4.5,5.2,112,1006.18,-24.6,61,0.30,0.0,1037.28,60.8
2019-01-18 22:30,50.6304583333333,-96.98076,4.7,6.6,126,1006.20,-25.3,63,0.30,0.0,1037.29,60.8
2019-01-18 22:40,50.6304566666667,-96.98076,5.9,6.7,140,1006.12,-26.3,64,0.30,0.0,1037.25,60.8
2019-01-18 22:50,50.6304816666667,-96.98077,5.6,6.3,143,1006.13,-26.6,65,0.31,0.0,1037.24,60.8
2019-01-18 23:00,50.63046,-96.9807566666667,5.1,5.7,145,1006.16,-26.8,66,0.31,0.0,1037.30,48.3
2019-01-18 23:10,50.6304633333333,-96.98076,4.6,5.5,151,1006.21,-26.9,67,0.31,0.0,1037.39,48.3
2019-01-18 23:20,50.6304633333333,-96.9807633333333,4.4,5.5,156,1006.20,-27.0,67,0.32,0.0,1037.44,48.3
2019-01-18 23:30,50.630465,-96.9807616666667,4.9,5.7,157,1006.17,-27.2,68,0.32,0.0,1037.42,48.3
2019-01-18 23:40,50.63045,-96.980775,4.4,5.3,160,1006.21,-27.2,67,0.32,0.0,1037.46,48.3
2019-01-18 23:50,50.630455,-96.980775,3.9,4.9,173,1006.24,-27.5,67,0.32,0.0,1037.54,48.3
